Location: Owatonna
(44.0840°N, 93.2260°W)
Time: 02:00:40
(UTC-06:00)

Daily predictions for brighter satellites

Satellite Brightness Start Highest point End
(mag) Time Altitude Azimuth Time Altitude Azimuth Time Altitude Azimuth
SL-16 R/B 4.3 03:57:17 21° ESE 03:57:17 21° ESE 03:59:26 10° ESE
Cosmos 2297 Rocket 4.2 04:05:23 23° NE 04:05:23 23° NE 04:07:29 10° NE
USA 229 DEB 4.4 04:13:19 50° SE 04:13:19 50° SE 04:18:31 10° SE
USA 229 4.4 04:13:22 51° ESE 04:13:22 51° ESE 04:18:37 10° SE
Cosmos 2227 Rocket 4.2 04:18:50 21° NNE 04:18:50 21° NNE 04:20:37 10° NNE
Cosmos 1725 Rocket 4.4 04:40:50 54° NNE 04:40:50 54° NNE 04:45:37 10° N
USA 234 4.2 04:53:27 10° E 04:59:24 38° NNE 05:01:29 31° NNW
Cosmos 2151 4.2 04:59:21 39° ENE 04:59:41 39° ENE 05:03:41 10° SSE
NOSS 3-1 (C) 4.1 05:01:36 38° NNW 05:04:54 75° NE 05:13:12 10° SE
Cosmos 1538 Rocket 4.0 05:13:23 55° N 05:14:36 82° ENE 05:19:58 10° SSE
COSMO-SKYMED 1 2.8 05:11:24 10° SSE 05:15:41 67° ENE 05:16:07 62° NE
Ariane Rocket 4.2 05:18:09 10° NNE 05:23:01 41° E 05:27:49 10° S
Genesis I 3.5 05:24:37 65° E 05:24:37 65° E 05:28:10 10° SE
SL-8 R/B 3.6 05:25:32 73° NNW 05:25:53 78° NNE 05:30:41 10° ESE
Cosmos 2233 Rocket 3.9 05:19:43 10° SSW 05:25:58 74° W 05:32:18 10° N
Cosmos 1500 Rocket 4.5 05:28:40 36° SSW 05:28:40 36° SSW 05:31:22 10° S
CZ-3 Stage 3 3.8 05:28:58 16° SSW 05:31:10 21° SSE 05:39:04 10° ESE
SeaSat 1 3.4 05:33:32 10° NNE 05:36:52 32° NNW 05:36:52 32° NNW
SL-16 R/B 2.9 05:39:13 34° SW 05:39:13 34° SW 05:43:26 10° S
ISS -0.9 05:41:57 15° S 05:41:57 15° S 05:42:49 10° S
Cosmos 2346 Rocket 4.4 05:35:23 10° NNW 05:41:23 58° W 05:47:17 10° S
Coronas F rocket 4.2 05:44:36 10° NE 05:46:07 15° ENE 05:47:37 10° ESE
DMSP B5D1-3 4.4 05:41:06 10° S 05:46:13 79° WSW 05:51:22 10° NNW
Cosmos 2297 Rocket 3.2 05:47:14 27° NW 05:47:14 27° NW 05:51:11 10° N
Cosmos 968 Rocket 3.6 05:46:56 35° WSW 05:48:47 50° WNW 05:53:55 10° NNE
Cosmos 1703 3.6 05:48:45 10° N 05:52:41 67° E 05:56:35 10° SSE
Cosmos 2227 Rocket 3.7 06:00:41 18° NNW 06:00:41 18° NNW 06:03:38 10° N
Meteor 1-28 Rocket 3.1 05:56:05 10° S 05:59:47 60° W 06:01:21 31° NNW
Cosmos 773 Rocket 4.0 05:57:22 21° NNW 06:00:52 60° WSW 06:06:04 10° S
Cosmos 1626 2.5 05:57:41 10° N 06:01:26 64° E 06:05:07 10° SSE
PSLV R/B 4.1 06:01:41 31° SW 06:02:46 43° S 06:06:00 10° E
Cosmos 2058 3.0 06:00:42 25° NNW 06:02:50 52° W 06:06:52 10° S
Cosmos 1271 Rocket 2.7 05:59:16 10° SSW 06:02:59 50° WNW 06:06:41 10° N
SKYMED 2 4.1 05:59:50 10° SSW 06:03:51 37° W 06:04:45 33° WNW
Cosmos 2112 Rocket 4.3 06:00:08 10° NNW 06:05:29 70° ENE 06:10:49 10° SSE
Meteor 1-16 Rocket 4.2 06:02:10 10° SSW 06:07:22 48° WNW 06:12:31 10° N
NOAA 6 4.5 06:03:24 10° N 06:08:12 38° WNW 06:12:57 10° SW
Meteor 1-11 4.4 06:03:18 10° NNW 06:08:54 49° W 06:14:27 10° SSW
BREEZE-M DEB (TANK) 3.2 06:09:46 28° NNW 06:10:32 33° N 06:12:37 10° ENE
Meteor 2-12 Rocket 4.4 06:04:46 10° SSW 06:10:53 74° W 06:17:05 10° N
Cosmos 1184 Rocket 2.9 06:08:16 11° N 06:11:30 77° E 06:14:49 10° SSE
Cosmos 1340 Rocket 3.2 06:10:40 28° NW 06:12:03 39° W 06:15:45 10° SSW
NOSS 3-1 (A) 4.1 06:09:42 16° NW 06:15:53 61° WSW 06:24:05 10° SSE
Cosmos 2221 2.5 06:11:41 10° SSW 06:15:56 55° W 06:20:11 10° N
Cosmos 292 Rocket 3.7 06:11:53 12° NNW 06:16:16 70° WSW 06:21:02 10° S
SL-14 R/B 4.3 06:17:06 26° W 06:17:06 26° W 06:20:27 10° SSW
Cosmos 1666 Rocket 3.6 06:14:01 10° N 06:18:30 89° E 06:22:59 10° S
Cosmos 1464 Rocket 4.0 06:13:12 10° SSW 06:19:28 63° W 06:25:42 10° N
Cosmos 1943 3.2 06:13:52 10° NNW 06:19:37 86° ENE 06:25:18 10° SSE
ATLAS 2AS CENTAUR R/B 3.5 06:16:43 10° NNW 06:24:46 61° NE 06:32:19 10° SE
SMAP 3.8 06:20:48 10° NNE 06:25:24 57° E 06:29:58 10° S
Cosmos 1356 Rocket 3.5 06:21:40 10° NNW 06:25:41 54° W 06:29:45 10° S
CSL-04 DEB 4.5 06:21:34 10° N 06:25:57 70° WNW 06:30:13 10° SSW
Tiangong 2 3.0 06:26:16 10° SW 06:29:00 28° SSE 06:31:45 10° E
Cosmos 1777 Rocket 4.3 06:24:32 10° SW 06:29:28 42° WNW 06:34:25 10° N
Helios 1B rocket 3.2 06:25:58 10° SSE 06:29:57 54° ENE 06:33:59 10° N
CSL-04 Debris 4.1 06:28:12 10° N 06:33:39 67° WNW 06:39:02 10° SSW
ERBS 4.3 06:33:13 14° WSW 06:33:42 14° WSW 06:35:32 10° SSW
Cosmos 2151 4.4 06:36:01 17° WNW 06:36:40 18° W 06:39:30 10° SW
SPOT 3 Rocket 4.1 06:34:15 10° NNE 06:39:26 63° ESE 06:44:36 10° S
USA 234 3.3 06:35:23 10° SE 06:41:58 87° NE 06:48:34 10° NW
Cosmos 2263 Rocket 2.4 06:38:26 10° SSW 06:44:06 79° ESE 06:49:49 10° NNE
IRS-1A Rocket 4.3 06:38:23 10° N 06:44:17 72° WNW 06:50:03 10° SSW
SJ-12 3.9 06:45:06 10° N 06:49:08 60° WNW 06:53:08 10° SSW
Cosmos 1908 3.2 06:46:05 10° SSW 06:49:51 58° W 06:53:39 10° N
Cosmos 1470 Rocket 3.6 06:46:46 10° N 06:51:08 82° E 06:55:28 10° S
DELTA 2 R/B (1) 4.3 06:46:52 10° WSW 06:52:14 51° S 06:57:38 10° E
COSMO-SKYMED 1 4.4 06:50:39 10° WSW 06:52:18 12° W 06:53:20 11° WNW
CZ-2C R/B 2.2 06:51:44 10° N 06:56:16 61° WNW 07:00:46 10° SSW
CZ-4 R/B 1.6 06:53:40 10° N 06:57:36 49° WNW 07:01:34 10° SSW
IDEFIX/ARIANE 42P 2.6 06:53:42 10° N 06:58:55 63° WNW 07:04:07 10° SSW
CSL-04 Rocket 4.2 06:54:40 10° N 06:59:26 34° WNW 07:04:09 10° SW
Meteor 1-29 3.0 06:57:37 10° SSE 07:01:06 84° WSW 07:04:38 10° NNW
Ariane Rocket 3.9 06:57:32 10° N 07:01:45 27° WNW 07:05:57 10° WSW
Cosmos 1726 2.8 06:59:20 10° S 07:02:56 58° E 07:06:37 10° NNE
Cosmos 2228 Rocket 3.1 07:00:45 10° SSW 07:05:07 57° W 07:09:29 10° N
Iridium 4 Rocket 3.2 07:04:44 10° N 07:09:02 88° E 07:13:39 10° S
Cosmos 1300 3.1 07:06:20 10° S 07:10:07 71° E 07:13:58 10° NNE
